Location: Goettingen
(51.5300°N, 9.9433°E)
Time: 10:20:43
(UTC+02:00)

ISS - Pass Details

Date: 14 May 2025
Orbit: 416 x 419 km, 51.6° (Epoch: 18 May)

Event Time Altitude Azimuth Distance (km) Brightness Sun altitude
Rises 01:25:24 0° 283° (WNW) 2,362 0.2 -19.8°
Reaches altitude 10° 01:27:32 10° 278° (W) 1,496 -0.9 -19.8°
Enters shadow 01:28:41 19° 271° (W) 1,057 -1.8 -19.8°
